CAPE
2931 3341 3866 3600 3239 3217 2812 3175 3260 2955 2883 2750 2087 1578 1220 1046 890 804 699 238 16 0 0 0 0 0 0 0 0 0 0 0 0 1 0 0 0 0 0 0 1 6 9
3776 4081 3939 3188 3353 2927 2920 3102 3700 3320 2892 2715 1883 1917 1269 985 939 719 265 141 32 6 0 0 0 0 0 0 0 0 0 0 0 0 0 0 0 0 0 0 0 0 0
3203 2790 2696 2929 2893 2771 2936 3028 3710 3838 3612 2247 1735 2273 1993 1213 1068 579 253 57 7 0 0 0 0 0 0 0 0 0 0 0 0 0 0 0 0 0 1 14 0 0 0
2561 2705 3282 3200 3453 2824 3591 3899 3136 3339 2867 2225 1578 1588 1210 1102 703 450 208 21 1 0 0 0 0 0 0 0 0 0 2 2 12 0 0 0 0 13 3 0 0 0 0
4072 4036 3955 4059 3973 4116 4572 4240 3651 3563 3033 2707 2287 1922 1123 780 549 430 129 5 0 0 0 0 0 0 0 0 0 3 7 8 5 0 0 0 0 0 11 1 0 4 14
3993 3881 4378 4738 4808 4514 4733 4232 3867 3408 2271 1989 1901 1685 923 411 173 105 80 3 2 0 0 0 0 0 0 0 0 0 0 0 4 6 0 0 16 19 17 7 7 27 9
4375 4335 4616 4713 4736 4756 4090 2703 2424 1383 1301 1077 1070 663 829 125 64 18 1 0 0 0 0 0 0 0 0 0 0 0 0 0 0 0 0 1 6 33 61 46 103 50 43
4578 4581 4728 4668 4412 3410 2710 2176 1686 730 198 129 767 453 608 113 0 0 0 0 0 0 0 0 0 0 0 0 0 0 15 25 26 16 32 21 11 16 7 11 72 63 88
3875 4321 4569 3684 3060 2571 2401 1687 403 965 672 842 526 319 127 19 0 0 0 0 0 0 0 0 0 0 0 0 0 4 9 18 10 18 10 0 0 0 0 0 0 0 49
4142 3627 3268 2842 2430 1960 1215 226 163 648 441 242 122 70 17 0 0 0 0 3 0 0 0 0 0 0 0 0 0 0 10 40 37 37 15 3 14 32 16 22 55 38 48
3281 2979 2407 2070 1619 944 567 1136 1101 544 188 148 114 76 29 0 0 0 1 0 1 1 0 0 0 0 0 0 0 0 0 0 0 0 1 23 26 29 95 73 92 76 81
2707 2289 1803 1606 1172 671 1057 790 408 210 189 110 89 72 3 0 0 0 0 0 1 0 0 0 5 0 0 0 0 0 0 0 0 3 31 14 17 35 78 90 172 142 113
2416 2342 1919 1106 833 538 815 443 145 90 67 149 121 29 1 2 0 0 0 0 0 0 0 0 0 0 0 0 0 0 0 0 25 24 10 11 55 46 182 81 122 85 36
2194 2008 1431 1001 707 799 479 415 165 160 259 244 105 66 3 0 0 0 0 0 0 0 0 0 0 0 0 0 0 4 19 38 14 7 47 89 11 23 36 49 30 9 0
1946 1853 1652 906 823 801 548 382 216 260 325 412 112 41 0 0 0 0 0 0 2 0 0 6 1 7 18 22 27 25 14 7 1 7 77 20 9 42 42 0 0 0 0
2082 1523 1091 849 739 824 297 219 373 459 515 177 35 0 0 0 0 0 0 0 0 0 0 0 1 9 15 19 22 9 2 0 5 21 10 9 34 19 0 0 0 0 0
1574 1531 1113 739 748 671 608 510 308 221 262 145 0 0 0 0 0 0 0 0 0 0 0 0 2 8 15 13 5 0 0 0 23 16 15 17 30 0 0 0 0 0 0
1932 1181 685 606 681 841 1141 689 302 501 152 9 1 0 0 0 0 0 0 0 0 0 0 2 18 15 8 0 0 0 0 0 13 26 20 16 26 0 0 0 0 1 1
2082 1228 967 944 860 1096 1237 1152 638 301 41 20 17 0 0 0 0 0 0 0 0 0 17 23 4 0 0 0 0 0 2 10 0 10 11 16 15 0 0 0 1 1 0
1532 1246 1095 1229 856 1311 1099 705 531 177 18 21 11 0 0 0 0 0 0 0 0 10 23 5 0 0 0 0 0 0 3 14 13 0 0 2 0 0 0 0 6 0 0
1054 1024 984 1268 807 1112 892 1021 485 14 28 25 3 30 7 0 0 0 0 15 13 31 16 2 0 0 0 0 0 0 14 16 6 0 0 0 31 0 0 7 5 0 22
997 1076 1133 1323 929 1287 1408 877 383 48 62 30 38 73 11 0 0 6 6 24 28 10 1 0 0 0 0 0 1 12 0 0 0 0 0 0 0 0 0 0 9 12 50
572 805 718 806 674 983 1177 421 221 51 54 50 59 69 0 0 0 2 18 21 11 7 0 0 0 0 0 1 5 0 0 0 0 0 0 0 0 0 0 5 13 22 45
499 625 696 640 688 624 540 314 112 88 57 97 124 1 0 0 0 16 15 13 18 0 0 0 0 0 2 6 0 0 0 0 0 0 0 0 0 9 10 11 20 60 54
538 341 365 463 489 416 445 215 77 59 66 69 1 0 0 0 12 22 4 10 0 0 0 0 0 3 11 0 0 0 0 0 0 0 0 0 6 8 11 17 36 53 66
349 350 414 371 305 319 223 106 64 82 97 3 0 4 6 15 18 14 4 0 0 0 0 0 3 4 0 0 0 0 0 0 0 0 0 0 0 2 21 14 39 81 7
CIN
-14 -22 -28 -44 -60 -63 -37 -10 -4 0 -1 -2 -12 -18 -17 -8 -6 -7 -4 -76 -182 0 0 0 0 0 0 0 0 0 0 0 0 0 0 0 0 0 0 0 0 0 -14
-7 -17 -35 -53 -49 -51 -48 -22 0 0 -2 -1 -13 -4 -16 -14 -18 -33 -80 -147 -216 0 0 0 0 0 0 0 0 0 0 0 0 0 0 0 0 0 0 0 0 0 0
-20 -44 -43 -55 -52 -46 -48 -40 -16 -3 0 -21 -34 0 0 -19 -24 -57 -98 -139 0 0 0 0 0 0 0 0 0 0 0 0 0 0 0 0 0 0 0 0 0 0 0
-50 -45 -35 -60 -43 -54 -35 -17 -27 -13 -6 -9 -33 -16 -44 -37 -56 -68 -92 -148 0 0 0 0 0 0 0 0 0 0 -1 0 0 0 0 0 0 -2 0 0 0 0 0
-26 -30 -48 -47 -43 -21 0 -3 -5 -2 -2 0 0 0 -15 -22 -25 -48 -122 0 0 0 0 0 0 0 0 0 0 0 0 0 0 0 0 0 0 0 0 0 0 -1 -1
-81 -73 -30 -4 -2 -3 0 0 0 0 -4 -3 -10 -1 -6 -24 -91 -120 -117 0 0 0 0 0 0 0 0 0 0 0 0 0 0 0 0 0 -1 0 0 0 0 0 0
-75 -57 -15 -19 -4 0 -7 -12 -6 -29 -34 -1 -1 -44 -1 -132 -67 -158 -28 0 0 0 0 0 0 0 0 0 0 0 0 0 0 0 0 0 0 0 0 0 0 0 0
-70 -34 -9 -7 -4 -26 -36 -29 -26 -164 -110 -382 -16 -30 -7 -9 0 0 0 0 0 0 0 0 0 0 0 0 0 0 0 -2 -28 -9 -4 -2 -3 -9 -25 -6 -6 -2 -5
-81 -28 -6 -38 -57 -43 -12 0 -43 -53 -62 -14 -29 -41 -3 -49 0 0 0 0 0 0 0 0 0 0 0 0 0 0 0 0 -5 -108 -89 0 0 0 0 0 0 0 -1
-41 -79 -100 -97 -94 -83 -92 -244 -223 -61 -92 -57 -29 -35 -33 0 0 0 -20 -14 -2 0 0 0 0 0 0 0 0 0 0 0 0 -4 -10 -6 -8 -77 -196 -90 -5 0 -3
-133 -122 -138 -135 -190 -157 -399 -248 -81 -58 -188 -79 -122 -125 -101 0 0 0 -28 0 -5 -3 0 0 0 0 0 0 0 0 0 0 0 0 0 -1 0 0 -4 -62 -9 -3 -10
-111 -113 -136 -137 -178 -222 -209 -225 -337 -287 -114 -113 -105 -83 -68 0 0 0 0 0 -4 0 0 0 -2 0 0 0 0 0 0 0 0 -1 -1 0 0 0 -25 -18 -6 -3 0
-95 -63 -88 -205 -283 -395 -259 -352 -498 -410 -198 -57 -56 -91 -14 0 0 0 0 0 0 0 0 0 0 0 0 0 0 0 0 0 0 0 0 0 -6 -9 -1 -39 -21 -26 -28
-98 -94 -101 -127 -270 -219 -317 -301 -314 -313 -104 -38 -53 -58 -11 0 0 0 0 -1 0 0 0 0 0 0 0 0 -3 -67 -12 -6 -1 0 -3 -13 -7 -8 -1 -2 -2 -5 0
-101 -81 -74 -190 -185 -174 -232 -279 -293 -201 -60 -9 -46 -54 0 0 0 0 0 0 0 0 0 0 0 0 0 -1 0 0 0 -1 0 -1 -4 -3 -1 0 -1 0 0 0 0
-31 -83 -127 -162 -199 -125 -273 -282 -144 -55 -27 -53 -87 0 0 0 0 0 0 0 0 0 0 0 0 0 0 0 0 0 -1 0 0 0 0 -1 0 0 0 0 0 0 0
-33 -18 -86 -182 -139 -91 -56 -83 -109 -100 -42 -42 0 0 0 0 0 0 0 0 0 0 0 0 0 0 0 0 0 0 0 0 -6 0 0 0 0 0 0 0 0 0 0
-18 -63 -159 -166 -114 -24 0 -7 -58 -16 -41 -143 -13 0 0 0 0 0 0 0 0 0 0 0 0 -1 0 0 0 0 0 0 0 0 0 0 0 0 0 0 0 0 -1
-18 -68 -83 -80 -58 -3 0 0 -1 -23 -73 -67 -51 0 0 0 0 0 0 0 0 0 0 0 0 0 0 0 0 0 0 0 0 0 0 0 0 0 0 0 0 0 0
-38 -41 -40 -17 -59 -1 -1 0 -9 -35 -39 -36 -44 0 -1 0 0 0 0 0 0 0 0 0 0 0 0 0 0 0 0 -2 -4 0 0 0 0 0 0 -1 0 0 0
-69 -73 -48 -2 -57 -15 -7 -3 -1 -39 -29 -27 -70 -28 -9 0 0 0 0 0 0 -1 -1 -1 0 0 0 0 0 0 0 -1 0 0 0 0 0 0 0 -1 0 0 0
-58 -36 -18 -9 -39 -1 -6 -2 -2 -26 -20 -38 -45 -22 -18 0 0 0 0 0 0 -1 0 0 0 0 0 0 0 0 0 0 0 0 0 0 0 0 0 0 0 0 0
-84 -35 -37 -18 -25 -4 -16 -8 -1 -30 -41 -42 -14 -12 0 0 0 0 0 0 0 0 0 0 0 0 0 0 0 0 0 0 0 0 0 0 0 0 0 0 0 -2 -1
-61 -38 -12 -3 -1 -7 -32 -34 -12 -24 -42 -4 0 -2 0 0 0 -1 0 -1 0 0 0 0 0 0 0 0 0 0 0 0 0 0 0 0 0 0 0 0 0 -3 -8
-40 -46 -30 -1 0 -7 -32 0 -17 -20 -1 -4 -1 0 0 0 0 -1 0 0 0 0 0 0 0 0 0 0 0 0 0 0 0 0 0 0 0 0 0 -1 -4 -3 0
-58 -33 -4 -1 -2 0 -2 -4 -8 0 0 -3 -8 -3 0 0 -1 0 -1 0 0 0 0 0 0 0 0 0 0 0 0 0 0 0 0 0 0 0 0 -1 0 0 -2
Wind_Speed
13 14 11 13 15 14 10 10 9 15 18 20 21 23 25 25 24 22 25 26 nan nan nan nan nan nan nan nan nan nan nan nan nan nan nan nan nan nan nan nan nan nan nan
12 10 11 13 13 14 12 13 13 18 21 22 23 27 29 29 29 25 23 28 nan nan nan nan nan nan nan nan nan nan nan nan nan nan nan nan nan nan nan nan nan nan nan
12 13 15 18 20 20 22 23 25 27 26 31 30 31 30 33 35 32 33 nan nan nan nan nan nan nan nan nan nan nan nan nan nan nan nan nan nan nan nan nan nan nan nan
14 15 16 20 22 24 23 22 25 26 30 34 36 39 41 42 44 46 45 nan nan nan nan nan nan nan nan nan nan nan nan nan nan nan nan nan nan nan nan nan nan nan nan
16 18 18 17 17 16 20 26 29 32 34 36 38 41 44 46 49 49 49 nan nan nan nan nan nan nan nan nan nan nan nan nan nan nan nan nan nan nan nan nan nan nan nan
21 17 17 19 21 26 30 36 39 40 42 41 38 45 48 49 57 48 nan nan nan nan nan nan nan nan nan nan nan nan nan nan nan nan nan nan nan nan nan nan nan nan nan
21 25 27 28 29 31 37 42 44 50 50 53 13 40 36 60 nan nan nan nan nan nan nan nan nan nan nan nan nan nan nan nan nan nan nan nan nan nan nan nan 35 nan nan
25 31 28 27 28 38 48 48 55 68 59 65 77 65 41 36 nan nan nan nan nan nan nan nan nan nan nan nan nan nan nan nan nan nan nan nan nan nan nan nan nan nan nan
26 22 25 32 39 44 46 42 32 44 63 60 43 23 29 nan nan nan nan nan nan nan nan nan nan nan nan nan nan nan nan nan nan nan nan nan nan nan nan nan nan nan nan
28 38 42 43 44 48 51 51 41 51 64 54 27 nan nan nan nan nan nan nan nan nan nan nan nan nan nan nan nan nan nan nan nan nan nan nan nan nan nan nan nan nan nan
39 44 47 48 49 48 53 69 54 56 54 48 25 nan nan nan nan nan nan nan nan nan nan nan nan nan nan nan nan nan nan nan nan nan nan nan nan nan nan nan nan nan nan
42 43 42 40 41 44 50 47 60 52 51 47 nan nan nan nan nan nan nan nan nan nan nan nan nan nan nan nan nan nan nan nan nan nan nan nan nan nan nan nan 24 15 14
46 46 47 41 45 48 51 58 66 nan nan 42 39 nan nan nan nan nan nan nan nan nan nan nan nan nan nan nan nan nan nan nan nan nan nan nan nan nan 22 nan 22 nan nan
46 48 47 49 53 55 57 54 49 51 43 36 36 nan nan nan nan nan nan nan nan nan nan nan nan nan nan nan nan nan nan nan nan nan nan nan nan nan nan nan nan nan nan
46 43 45 50 54 56 53 44 44 51 37 37 35 nan nan nan nan nan nan nan nan nan nan nan nan nan nan nan nan nan nan nan nan nan nan nan nan nan nan nan nan nan nan
36 41 47 49 52 49 49 43 47 48 42 40 nan nan nan nan nan nan nan nan nan nan nan nan nan nan nan nan nan nan nan nan nan nan nan nan nan nan nan nan nan nan nan
35 37 42 40 40 40 40 42 48 43 44 38 nan nan nan nan nan nan nan nan nan nan nan nan nan nan nan nan nan nan nan nan nan nan nan nan nan nan nan nan nan nan nan
29 42 34 34 34 35 35 44 42 39 38 nan nan nan nan nan nan nan nan nan nan nan nan nan nan nan nan nan nan nan nan nan nan nan nan nan nan nan nan nan nan nan nan
26 30 26 31 29 29 35 35 33 36 nan nan nan nan nan nan nan nan nan nan nan nan nan nan nan nan nan nan nan nan nan nan nan nan nan nan nan nan nan nan nan nan nan
21 17 24 25 29 29 33 29 30 32 nan nan nan nan nan nan nan nan nan nan nan nan nan nan nan nan nan nan nan nan nan nan nan nan nan nan nan nan nan nan nan nan nan
18 24 22 24 30 29 28 25 25 nan nan nan nan nan nan nan nan nan nan nan nan nan nan nan nan nan nan nan nan nan nan nan nan nan nan nan nan nan nan nan nan nan nan
21 23 24 23 29 26 26 25 27 nan nan nan nan nan nan nan nan nan nan nan nan nan nan nan nan nan nan nan nan nan nan nan nan nan nan nan nan nan nan nan nan nan nan
21 22 24 25 24 17 18 23 26 nan nan nan nan nan nan nan nan nan nan nan nan nan nan nan nan nan nan nan nan nan nan nan nan nan nan nan nan nan nan nan nan nan nan
20 19 19 22 24 21 18 22 27 nan nan nan 19 nan nan nan nan nan nan nan nan nan nan nan nan nan nan nan nan nan nan nan nan nan nan nan nan nan nan nan nan nan nan
19 19 19 19 18 15 21 24 nan nan nan nan nan nan nan nan nan nan nan nan nan nan nan nan nan nan nan nan nan nan nan nan nan nan nan nan nan nan nan nan nan nan nan
20 20 21 21 21 18 26 27 nan nan nan nan nan nan nan nan nan nan nan nan nan nan nan nan nan nan nan nan nan nan nan nan nan nan nan nan nan nan nan nan nan nan nan
Wind_Direction
354 344 359 5 5 358 349 334 345 321 317 317 314 308 304 302 300 295 284 291 nan nan nan nan nan nan nan nan nan nan nan nan nan nan nan nan nan nan nan nan nan nan nan
341 337 335 338 339 333 339 335 330 320 318 313 309 306 308 309 304 300 305 299 nan nan nan nan nan nan nan nan nan nan nan nan nan nan nan nan nan nan nan nan nan nan nan
331 335 333 337 343 349 346 346 337 326 319 316 313 312 312 309 302 301 298 nan nan nan nan nan nan nan nan nan nan nan nan nan nan nan nan nan nan nan nan nan nan nan nan
337 330 332 342 349 351 341 337 333 322 316 317 316 311 312 309 308 306 301 nan nan nan nan nan nan nan nan nan nan nan nan nan nan nan nan nan nan nan nan nan nan nan nan
351 353 356 347 337 325 316 323 318 315 312 310 311 312 302 296 305 295 298 nan nan nan nan nan nan nan nan nan nan nan nan nan nan nan nan nan nan nan nan nan nan nan nan
345 348 327 319 321 321 314 308 311 316 308 291 301 301 301 298 286 288 nan nan nan nan nan nan nan nan nan nan nan nan nan nan nan nan nan nan nan nan nan nan nan nan nan
335 340 333 327 326 323 312 302 303 304 300 274 276 273 285 300 nan nan nan nan nan nan nan nan nan nan nan nan nan nan nan nan nan nan nan nan nan nan nan nan 273 nan nan
328 336 330 330 326 304 305 303 304 310 314 320 303 303 272 288 nan nan nan nan nan nan nan nan nan nan nan nan nan nan nan nan nan nan nan nan nan nan nan nan nan nan nan
324 335 326 301 296 294 290 283 259 334 329 334 314 277 284 nan nan nan nan nan nan nan nan nan nan nan nan nan nan nan nan nan nan nan nan nan nan nan nan nan nan nan nan
303 285 293 297 301 300 297 300 337 349 338 329 313 nan nan nan nan nan nan nan nan nan nan nan nan nan nan nan nan nan nan nan nan nan nan nan nan nan nan nan nan nan nan
279 286 293 301 304 303 304 310 322 330 321 331 308 nan nan nan nan nan nan nan nan nan nan nan nan nan nan nan nan nan nan nan nan nan nan nan nan nan nan nan nan nan nan
291 295 298 301 294 294 309 304 309 314 318 321 nan nan nan nan nan nan nan nan nan nan nan nan nan nan nan nan nan nan nan nan nan nan nan nan nan nan nan nan 312 304 281
284 288 287 287 289 296 304 308 307 nan nan 320 318 nan nan nan nan nan nan nan nan nan nan nan nan nan nan nan nan nan nan nan nan nan nan nan nan nan 291 nan 285 nan nan
274 280 278 282 286 294 296 304 311 309 310 308 310 nan nan nan nan nan nan nan nan nan nan nan nan nan nan nan nan nan nan nan nan nan nan nan nan nan nan nan nan nan nan
274 279 279 283 289 291 293 299 308 312 305 309 308 nan nan nan nan nan nan nan nan nan nan nan nan nan nan nan nan nan nan nan nan nan nan nan nan nan nan nan nan nan nan
280 281 280 279 285 285 287 290 276 287 281 277 nan nan nan nan nan nan nan nan nan nan nan nan nan nan nan nan nan nan nan nan nan nan nan nan nan nan nan nan nan nan nan
278 272 282 282 280 285 292 295 289 273 269 272 nan nan nan nan nan nan nan nan nan nan nan nan nan nan nan nan nan nan nan nan nan nan nan nan nan nan nan nan nan nan nan
277 277 285 291 285 288 290 288 289 288 293 nan nan nan nan nan nan nan nan nan nan nan nan nan nan nan nan nan nan nan nan nan nan nan nan nan nan nan nan nan nan nan nan
286 288 291 282 284 280 282 284 287 289 nan nan nan nan nan nan nan nan nan nan nan nan nan nan nan nan nan nan nan nan nan nan nan nan nan nan nan nan nan nan nan nan nan
266 252 279 274 273 276 281 284 282 283 nan nan nan nan nan nan nan nan nan nan nan nan nan nan nan nan nan nan nan nan nan nan nan nan nan nan nan nan nan nan nan nan nan
266 269 274 277 273 281 283 282 281 nan nan nan nan nan nan nan nan nan nan nan nan nan nan nan nan nan nan nan nan nan nan nan nan nan nan nan nan nan nan nan nan nan nan
268 272 271 269 270 283 278 273 271 nan nan nan nan nan nan nan nan nan nan nan nan nan nan nan nan nan nan nan nan nan nan nan nan nan nan nan nan nan nan nan nan nan nan
281 272 266 259 263 262 247 255 272 nan nan nan nan nan nan nan nan nan nan nan nan nan nan nan nan nan nan nan nan nan nan nan nan nan nan nan nan nan nan nan nan nan nan
285 282 273 261 259 251 250 257 273 nan nan nan 283 nan nan nan nan nan nan nan nan nan nan nan nan nan nan nan nan nan nan nan nan nan nan nan nan nan nan nan nan nan nan
289 291 286 285 270 269 265 272 nan nan nan nan nan nan nan nan nan nan nan nan nan nan nan nan nan nan nan nan nan nan nan nan nan nan nan nan nan nan nan nan nan nan nan
290 286 280 272 268 259 258 265 nan nan nan nan nan nan nan nan nan nan nan nan nan nan nan nan nan nan nan nan nan nan nan nan nan nan nan nan nan nan nan nan nan nan nan